Location: Sobotiste
(48.7170°N, 17.4000°E)
Time: 14:37:38
(UTC+02:00)

METEOR M2 - Pass Details

Date: 16 March 2026
Orbit: 817 x 824 km, 98.5° (Epoch: 14 April)

Event Time Altitude Azimuth Distance (km) Brightness Sun altitude
Rises 03:37:51 0° 20° (NNE) 3,372 ? -23.9°
Reaches altitude 10° 03:40:22 10° 28° (NNE) 2,435 ? -23.5°
Maximum altitude 03:45:24 39° 97° (E) 1,216 ? -22.7°
Drops below altitude 10° 03:50:24 10° 166° (SSE) 2,417 ? -22.0°
Sets 03:52:53 0° 174° (S) 3,344 ? -21.6°
